Regional Weather Roundup
Issued by NWS Spokane, WA

Home | Current Version | Previous Version | Text Only | Print | Product List | Glossary On
Versions: 1 2 3 4 5 6 7 8 9 10 11 12 13 14 15 16 17 18 19 20 21 22 23 24 25 26 27 28 29 30 31 32 33 34 35 36 37 38 39 40 41 42 43 44 45 46 47 48 49 50
000
NZUS01 KOTX 271610
RWROTX
EASTERN WASHINGTON/NORTHERN IDAHO ROUNDUP
NATIONAL WEATHER SERVICE, SPOKANE WA
800 AM PST THU NOV 27 2014

Note: "fair" indicated few or no clouds below 12,000 feet with no
significant weather and/or obstructions to visibility.

...NORTHEAST WASHINGTON AND NORTHERN IDAHO PANHANDLE...

CITY           SKY/WX    TMP DP  RH WIND       PRES   REMARKS
SPOKANE INTL   MOCLDY    50  39  66 S20G25    29.86S
SPOKANE DOWNTO MOCLDY    50  40  68 CALM      29.88S
COEUR D ALENE  CLOUDY    48  39  71 S6        29.88R
DEER PARK      CLOUDY    46  39  76 S10       29.87S
SANDPOINT      CLOUDY    37  37 100 CALM      29.87S FOG

...SOUTHEAST WASHINGTON AND SOUTHERN IDAHO PANHANDLE...

CITY           SKY/WX    TMP DP  RH WIND       PRES   REMARKS
WALLA WALLA    CLOUDY    56  38  50 CALM      29.94R
PULLMAN/MOSCOW MOCLDY    48  38  68 S3        29.95F
LEWISTON       MOCLDY    44  41  89 NE3       29.96F
LOWELL           N/A     40  39  97 NW3       30.08F

...COLUMBIA BASIN...

CITY           SKY/WX    TMP DP  RH WIND       PRES   REMARKS
EPHRATA        FOG       33  33 100 NE3       29.86S VSB<1/4
MOSES LAKE     CLOUDY    33  32  96 CALM      29.87F FOG
TRI CITIES     PTCLDY    54  44  69 SW12      29.93R
HERMISTON      MOCLDY    39  37  92 S3        29.94S
PENDLETON      PTCLDY    58  33  39 SW14      29.94S

...EAST SLOPES CASCADES...

CITY           SKY/WX    TMP DP  RH WIND       PRES   REMARKS
THE DALLES     CLOUDY    51  46  83 S7        29.94S
YAKIMA         PTCLDY    54  42  64 VRB7      29.86R
ELLENSBURG     CLOUDY    34  31  88 N3        29.88R FOG
WENATCHEE      CLOUDY    36  33  89 NE3       29.86F
OMAK           MOCLDY    35  33  92 E7        29.81S WCI  29

...SOUTHERN BRITISH COLUMBIA...

CITY           SKY/WX    TMP DP  RH WIND       PRES   REMARKS
PENTICTON      MOCLDY    41  37  87 S15G22    29.78S

...WESTERN MONTANA...

CITY           SKY/WX    TMP DP  RH WIND       PRES   REMARKS
MISSOULA       CLOUDY    31  31 100 VRB3      29.98S

...NEIGHBORING CITIES...

CITY           SKY/WX    TMP DP  RH WIND       PRES   REMARKS
SEATTLE        MOCLDY    55  50  83 S12       29.86R
CALGARY        FRZ DRZL  23  23 100 NE9       29.74R FOG     WCI  13



USA.gov is the U.S. government's official web portal to all federal, state and local government web resources and services.